Stations météo

réclame
Mon MeteoGroup
Tain Range, Grande-Bretagne (3062): Température de l'air & dewpoint: 09.12.2018 12:00:00 - 15.12.2018 12:00:00 (GMT)Tain Range, Grande-Bretagne (3062): Température de l'air -20cm & Température de l'air -100cm: 09.12.2018 12:00:00 - 15.12.2018 12:00:00 (GMT)Tain Range, Grande-Bretagne (3062): Vitesse du vent & gusts: 09.12.2018 12:00:00 - 15.12.2018 12:00:00 (GMT)Tain Range, Grande-Bretagne (3062): Direction du vent: 09.12.2018 12:00:00 - 15.12.2018 12:00:00 (GMT)Tain Range, Grande-Bretagne (3062): reduced air pressure: 09.12.2018 12:00:00 - 15.12.2018 12:00:00 (GMT)Tain Range, Grande-Bretagne (3062): visibility: 09.12.2018 12:00:00 - 15.12.2018 12:00:00 (GMT)Tain Range, Grande-Bretagne (3062): Quantités de précipitations: 09.12.2018 12:00:00 - 15.12.2018 12:00:00 (GMT)
Date & Time tt [°C] td [°C] tt -20cm [°C] tt -100cm [°C] ff [km/h] ff [knt] fx [km/h] fx [knt] dd ppp [hPa] vv [km] rr [mm]
15.12.2018 12:00:00 4,5 -2,6 - - 35 19 59 32 SSE 1003,5 40 -
15.12.2018 11:00:00 4,6 -2,9 - - 41 22 55 30 SSE 1004,8 21 0,0
15.12.2018 10:00:00 4,2 -3,8 - - 21 11 - - SSE 1007,0 45 0,0
15.12.2018 09:00:00 3,7 -3,7 4,0 5,7 11 6 - - SE 1008,6 40 0,0
15.12.2018 08:00:00 3,9 -4,1 - - 24 13 - - SSE 1008,4 45 0,0
15.12.2018 07:00:00 3,5 -3,7 - - 15 8 - - SE 1008,5 40 0,0
15.12.2018 06:00:00 3,2 -3,0 - - 16 9 - - S 1010,0 35 0,0
15.12.2018 05:00:00 3,6 -3,1 - - 18 10 - - S 1010,2 50 0,0
15.12.2018 04:00:00 3,6 -3,6 - - 29 16 - - S 1011,1 50 0,0
15.12.2018 03:00:00 2,5 -3,6 - - 16 9 - - SSE 1011,7 50 0,0
15.12.2018 02:00:00 3,5 -4,1 - - 16 9 - - SSE 1012,0 50 0,0
15.12.2018 01:00:00 2,9 -3,9 - - 16 9 - - S 1013,0 45 0,0
15.12.2018 00:00:00 3,9 -4,1 - - 31 17 - - S 1013,4 50 0,0
14.12.2018 23:00:00 3,8 -4,0 - - 31 17 - - S 1014,2 50 0,0
14.12.2018 22:00:00 3,8 -3,8 - - 29 16 50 27 S 1015,0 50 0,0
14.12.2018 21:00:00 3,1 -3,8 - - 24 13 46 25 S 1015,3 50 0,0
14.12.2018 20:00:00 3,6 -4,2 - - 37 20 55 30 S 1015,3 45 0,0
14.12.2018 19:00:00 3,5 -4,1 - - 31 17 55 30 S 1015,3 35 0,0
14.12.2018 18:00:00 3,2 -3,7 - - 16 9 59 32 S 1015,9 45 0,0
14.12.2018 17:00:00 4,2 -4,5 - - 46 25 59 32 S 1016,0 50 0,0
14.12.2018 16:00:00 4,1 -4,0 - - 52 28 65 35 S 1016,7 50 0,0
14.12.2018 15:00:00 3,6 -3,6 - - 31 17 50 27 S 1017,2 35 0,0
14.12.2018 14:00:00 4,4 -3,3 - - 28 15 48 26 SSW 1017,9 40 0,0
14.12.2018 13:00:00 4,8 -3,1 - - 34 18 46 25 SSW 1018,6 29 0,0
14.12.2018 12:00:00 4,4 -2,0 - - 15 8 - - S 1019,1 30 0,0
14.12.2018 11:00:00 3,2 -2,1 - - 24 13 46 25 S 1019,2 24 0,0
14.12.2018 10:00:00 2,7 -2,3 - - 22 12 - - S 1019,6 50 0,0
14.12.2018 09:00:00 -0,3 -3,5 4,4 5,7 11 6 - - S 1019,4 45 0,0
14.12.2018 08:00:00 2,1 -2,7 - - 21 11 46 25 S 1019,2 50 0,0
14.12.2018 07:00:00 3,0 -2,2 - - 31 17 - - S 1019,3 30 0,0
14.12.2018 06:00:00 3,0 -2,3 - - 28 15 - - S 1019,7 50 0,0
14.12.2018 05:00:00 3,5 -2,0 - - 28 15 - - S 1019,9 35 0,0
14.12.2018 04:00:00 3,5 -1,9 - - 21 11 - - SSE 1020,3 45 0,0
14.12.2018 03:00:00 3,7 -1,8 - - 28 15 - - S 1020,1 50 0,0
14.12.2018 02:00:00 1,1 -2,4 - - 11 6 - - S 1020,3 40 0,0
14.12.2018 01:00:00 2,4 -1,7 - - 13 7 - - SSE 1020,2 45 0,0
14.12.2018 00:00:00 2,7 -2,1 - - 13 7 - - S 1020,4 45 0,0
13.12.2018 23:00:00 3,4 -2,2 - - 11 6 - - S 1020,4 50 0,0
13.12.2018 22:00:00 3,8 -1,7 - - 18 10 - - S 1020,3 50 0,0
13.12.2018 21:00:00 3,2 -1,5 - - 18 10 - - S 1019,7 30 0,0
13.12.2018 20:00:00 2,8 -2,4 - - 8 4 - - SSE 1019,3 50 0,0
13.12.2018 19:00:00 3,5 -2,5 - - 16 9 - - S 1018,8 50 0,0
13.12.2018 18:00:00 3,5 -2,3 - - 16 9 48 26 S 1018,3 50 0,0
13.12.2018 17:00:00 4,4 -1,9 - - 28 15 - - S 1017,9 50 0,0
13.12.2018 16:00:00 4,6 -1,7 - - 29 16 - - SSE 1017,3 50 0,0
13.12.2018 15:00:00 5,2 -1,6 - - 31 17 46 25 S 1016,7 45 0,0
13.12.2018 14:00:00 6,0 -1,3 - - 37 20 59 32 SSE 1016,1 50 0,0
13.12.2018 13:00:00 6,1 -0,8 - - 41 22 55 30 SSE 1016,2 45 0,0
13.12.2018 12:00:00 6,1 -0,8 - - 35 19 63 34 S 1016,6 40 0,0
13.12.2018 11:00:00 6,0 -0,7 - - 46 25 67 36 S 1016,3 50 0,0
13.12.2018 10:00:00 5,6 -0,9 - - 44 24 76 41 SSE 1015,8 45 0,0
13.12.2018 09:00:00 5,8 -0,6 4,7 5,7 52 28 65 35 S 1015,1 45 0,0
13.12.2018 08:00:00 5,7 -0,3 - - 35 19 52 28 SSE 1015,4 50 0,0
13.12.2018 07:00:00 5,2 -1,1 - - 34 18 52 28 SSE 1015,2 30 0,0
13.12.2018 06:00:00 5,2 -0,7 - - 37 20 59 32 S 1015,4 50 0,0
13.12.2018 05:00:00 5,2 -0,9 - - 29 16 - - SE 1015,4 50 0,0
13.12.2018 04:00:00 5,1 -1,0 - - 35 19 48 26 SSE 1015,6 30 0,0
13.12.2018 03:00:00 5,4 -1,1 - - 35 19 59 32 SSE 1015,8 50 0,0
13.12.2018 02:00:00 5,8 -0,9 - - 42 23 54 29 SSE 1016,0 45 0,0
13.12.2018 01:00:00 5,7 -1,4 - - 34 18 55 30 SSE 1016,3 50 0,0
13.12.2018 00:00:00 6,2 -1,5 - - 41 22 65 35 SSE 1015,9 19 0,0
12.12.2018 23:00:00 5,5 -0,2 - - 34 18 - - SE 1015,5 40 0,0
12.12.2018 22:00:00 6,1 1,2 - - 31 17 48 26 SE 1015,7 40 0,0
12.12.2018 21:00:00 6,7 2,1 - - 29 16 - - SSE 1016,0 45 0,0
12.12.2018 20:00:00 6,6 2,9 - - 29 16 - - SSE 1016,0 40 0,0
12.12.2018 19:00:00 6,7 3,1 - - 26 14 - - SSE 1015,8 50 0,0
12.12.2018 18:00:00 6,4 3,4 - - 16 9 - - SSE 1016,0 30 0,0
12.12.2018 17:00:00 7,1 3,9 - - 15 8 - - SSE 1016,2 35 0,0
12.12.2018 16:00:00 6,9 3,3 - - 18 10 - - SSE 1016,3 40 0,0
12.12.2018 15:00:00 7,5 3,6 - - 15 8 - - SSE 1016,6 45 0,0
12.12.2018 14:00:00 7,8 4,5 - - 21 11 - - SE 1016,6 30 0,0
12.12.2018 13:00:00 7,9 4,8 - - 13 7 - - SE 1017,2 40 0,0
12.12.2018 12:00:00 7,9 4,8 - - 15 8 - - SSE 1017,5 23 0,0
12.12.2018 11:00:00 7,8 4,7 - - 26 14 - - S 1017,6 45 0,0
12.12.2018 10:00:00 7,4 5,0 - - 16 9 - - S 1017,6 25 0,0
12.12.2018 09:00:00 7,7 5,2 4,2 5,7 21 11 - - SE 1017,9 30 0,0
12.12.2018 08:00:00 7,9 5,2 - - 13 7 - - SE 1017,8 35 0,0
12.12.2018 07:00:00 8,5 5,6 - - 13 7 - - SSE 1017,5 50 0,0
12.12.2018 06:00:00 8,0 5,0 - - 11 6 - - SE 1017,1 45 0,0
12.12.2018 05:00:00 7,7 5,1 - - 16 9 - - SE 1016,6 50 0,0
12.12.2018 04:00:00 8,3 5,0 - - 18 10 - - S 1016,7 50 0,0
12.12.2018 03:00:00 8,5 5,2 - - 26 14 - - S 1016,8 50 0,0
12.12.2018 02:00:00 6,8 4,3 - - 5 3 - - ENE 1016,7 50 0,0
12.12.2018 01:00:00 8,9 5,1 - - 13 7 - - E 1017,1 45 0,0
12.12.2018 00:00:00 8,7 4,9 - - 8 4 65 35 SSE 1017,1 50 0,0
11.12.2018 23:00:00 5,8 4,2 - - 5 3 - - S 1017,0 45 0,0
11.12.2018 22:00:00 3,4 3,3 - - 4 2 - - NNE 1016,8 40 0,0
11.12.2018 21:00:00 3,2 2,8 - - 5 3 - - SW 1016,5 10 0,0
11.12.2018 20:00:00 3,9 3,6 - - 5 3 - - SSE 1016,5 25 0,0
11.12.2018 19:00:00 4,1 4,0 - - 8 4 - - SSE 1016,9 23 0,0
11.12.2018 18:00:00 2,7 2,4 - - 8 4 - - SSE 1017,1 9 0,0
11.12.2018 17:00:00 2,1 1,7 - - 4 2 - - SSE 1017,1 12 0,0
11.12.2018 16:00:00 2,9 2,6 - - 8 4 - - E 1017,4 14 0,0
11.12.2018 15:00:00 2,7 2,3 - - 5 3 - - E 1017,6 14 -
11.12.2018 14:00:00 2,7 2,4 - - 2 1 - - E 1018,2 19 0,2
11.12.2018 13:00:00 2,3 2,2 - - 4 2 - - SSE 1018,6 15 0,0
11.12.2018 12:00:00 1,6 1,5 - - 4 2 - - SE 1018,9 28 0,0
11.12.2018 11:00:00 0,0 -0,1 - - 5 3 - - S 1019,5 22 0,0
11.12.2018 10:00:00 -1,5 -1,7 - - 4 2 - - S 1019,5 26 0,0
11.12.2018 09:00:00 -1,5 -1,8 4,2 6,0 2 1 - - SW 1019,6 12 0,0
11.12.2018 08:00:00 -1,3 -1,8 - - 4 2 - - SW 1020,0 19 0,0
11.12.2018 07:00:00 -0,3 -0,8 - - 5 3 - - SW 1020,2 20 0,0
11.12.2018 06:00:00 1,0 0,6 - - 5 3 - - SSW 1020,5 30 0,0
11.12.2018 05:00:00 0,5 0,0 - - 4 2 - - SW 1020,9 45 0,0
11.12.2018 04:00:00 0,8 0,3 - - 5 3 - - WSW 1021,4 35 0,0
11.12.2018 03:00:00 0,6 0,0 - - 2 1 - - S 1021,5 30 0,0
11.12.2018 02:00:00 0,5 0,0 - - 0 0 - - N 1022,1 30 0,0
11.12.2018 01:00:00 0,3 -0,3 - - 2 1 - - W 1022,6 35 0,0
11.12.2018 00:00:00 0,2 -0,2 - - 0 0 - - N 1023,0 23 0,0
10.12.2018 23:00:00 0,3 -0,2 - - 2 1 - - SW 1023,6 30 0,0
10.12.2018 22:00:00 0,0 -0,3 - - 4 2 - - SW 1024,2 25 0,0
10.12.2018 21:00:00 -0,5 -0,8 - - 4 2 - - W 1024,7 30 0,0
10.12.2018 20:00:00 -0,9 -1,2 - - 2 1 - - SW 1024,7 45 0,0
10.12.2018 19:00:00 -1,3 -1,6 - - 5 3 - - W 1025,0 30 0,0
10.12.2018 18:00:00 -2,4 -2,8 - - 5 3 - - WSW 1025,4 30 0,0
10.12.2018 17:00:00 -1,6 -2,0 - - 2 1 - - S 1025,3 17 0,0
10.12.2018 16:00:00 -0,5 -1,2 - - 2 1 - - ESE 1025,3 45 0,0
10.12.2018 15:00:00 -0,5 -1,6 - - 2 1 - - W 1025,6 50 0,0
10.12.2018 14:00:00 1,1 -0,8 - - 5 3 - - W 1025,9 35 0,0
10.12.2018 13:00:00 1,1 -0,9 - - 9 5 - - W 1026,0 24 0,0
10.12.2018 12:00:00 1,2 -0,5 - - 4 2 - - WSW 1025,7 50 0,0
10.12.2018 11:00:00 -0,4 -2,0 - - 5 3 - - SSW 1025,5 50 0,0
10.12.2018 10:00:00 -0,4 -1,4 - - 9 5 - - SSW 1024,8 50 0,0
10.12.2018 09:00:00 -0,8 -1,9 4,7 6,0 11 6 - - W 1024,5 50 0,0
10.12.2018 08:00:00 0,4 -0,6 - - 13 7 - - W 1024,1 40 0,0
10.12.2018 07:00:00 -0,5 -1,4 - - 11 6 - - W 1023,8 50 0,0
10.12.2018 06:00:00 -0,7 -1,7 - - 11 6 - - SW 1023,3 50 0,0
10.12.2018 05:00:00 1,4 -0,1 - - 9 5 - - WSW 1022,5 50 0,0
10.12.2018 04:00:00 0,9 -0,3 - - 13 7 - - WSW 1021,9 50 0,0
10.12.2018 03:00:00 0,2 -0,4 - - 8 4 - - WSW 1021,6 45 0,0
10.12.2018 02:00:00 -0,7 -1,4 - - 5 3 - - W 1020,7 50 0,0
10.12.2018 01:00:00 -1,0 -2,3 - - 2 1 - - WNW 1020,2 25 0,0
10.12.2018 00:00:00 1,6 0,4 - - 13 7 - - WNW 1019,1 45 0,0
09.12.2018 23:00:00 2,2 0,8 - - 13 7 - - WNW 1018,3 50 0,0
09.12.2018 22:00:00 2,2 0,9 - - 15 8 - - WNW 1018,0 50 0,0
09.12.2018 21:00:00 2,6 1,1 - - 18 10 - - WNW 1016,9 50 0,0
09.12.2018 20:00:00 2,9 1,3 - - 21 11 - - WNW 1016,2 50 0,0
09.12.2018 19:00:00 3,1 1,6 - - 18 10 - - W 1015,7 50 0,0
09.12.2018 18:00:00 3,0 1,1 - - 16 9 - - WNW 1014,9 40 0,0
09.12.2018 17:00:00 0,9 -0,7 - - 9 5 - - W 1013,7 35 0,0
09.12.2018 16:00:00 3,1 0,5 - - 15 8 - - W 1012,7 40 0,0
09.12.2018 15:00:00 3,6 0,4 - - 16 9 - - W 1011,5 35 0,0
09.12.2018 14:00:00 4,4 1,0 - - 16 9 - - WNW 1010,5 40 0,0
09.12.2018 13:00:00 4,4 1,0 - - 16 9 - - WNW 1009,5 40 0,0
09.12.2018 12:00:00 4,6 1,0 - - 22 12 - - WNW 1008,8 30 0,0

tt = Température de l'air
td = dewpoint
tt -20cm = Température de l'air -20cm
tt -100cm = Température de l'air -100cm
ff = Vitesse du vent
fx = gusts
dd = Direction du vent
ppp = reduced air pressure
vv = visibility
rr = Quantités de précipitations

stations d'obs. à proximité